Miscellaneous Local Product
Issued by NWS North Platte, NE

Home | Current Version | Previous Version | Text Only | Print | Product List | Glossary On
Versions: 1 2 3 4 5 6 7 8 9 10 11 12 13 14 15 16 17 18 19 20 21 22 23 24 25 26 27 28 29 30 31 32 33 34 35 36 37 38 39 40 41 42 43 44 45 46 47 48 49 50
000
AXUS43 KLBF 270610
MISLBF


WESTERN AND NORTH CENTRAL NEBRASKA HOURLY WEATHER ROUNDUP
NATIONAL WEATHER SERVICE NORTH PLATTE NE
1200 AM CST FRI FEB 27 2015

***STATIONS NOT REPORTING VARIABLES SUCH AS SKY/WEATHER OR
PRESSURE ARE PROVIDED BY THE NEBRASKA DEPARTMENT OF
ROADS...RAWS...AND APRS NETWORKS...AND ARE NOT UNDER
NATIONAL WEATHER SERVICE QUALITY CONTROL***

...OBSERVATIONS IN AND NEAR THE EASTERN PANHANDLE OF NEBRASKA...

CITY           SKY/WX    TMP DP  RH WIND       PRES   REMARKS
PINE RIDGE     CLEAR     -5 -10  79 CALM      30.36F
CHADRON        CLEAR     -6 -11  79 SW7       30.36F WCI -20
ALLIANCE       PTCLDY     1  -4  79 CALM      30.29F
SIDNEY         CLOUDY     8   0  69 E12       30.26F WCI  -7
WHITECLAY        N/A     -4 -10  75 SE3         N/A
CRESCENT LAKE    N/A      3  -6  67 E6          N/A  WCI  -8
LISCO            N/A     11  -2  57 E5          N/A  WCI   2
BIG SPRINGS      N/A      7  -1  70 E5          N/A  WCI  -2
LEWELLEN         N/A     30  18  59 E3          N/A
$$

...OBSERVATIONS IN NORTH CENTRAL NEBRASKA...

CITY           SKY/WX    TMP DP  RH WIND       PRES   REMARKS
VALENTINE      CLEAR     -5  -9  83 SW3       30.44
THEDFORD       CLEAR     -1  -6  80 CALM      30.42F
AINSWORTH      CLEAR     -2  -7  80 W3        30.44S
O`NEILL        CLEAR      0  -6  77 CALM      30.50S
ORD            CLEAR     -2  -9  72 NW5       30.50S WCI -12
BROKEN BOW     CLEAR     -6 -11  79 CALM      30.46S
BROWNLEE         N/A     30  25  80 CALM        N/A
SPRINGVIEW       N/A     -6 -10  81 CALM        N/A
BREWSTER         N/A      0  -4  81 CALM        N/A
ROSE             N/A      8   6  88 CALM        N/A
NEWPORT          N/A      7   1  78 CALM        N/A
SARGENT          N/A      0  -4  80 CALM        N/A
COMSTOCK         N/A      2  -5  71 W6          N/A  WCI  -9
CHAMBERS         N/A     -3 -19  46 CALM        N/A
EWING            N/A     -4  -9  78 CALM        N/A
$$

...OBSERVATIONS IN SOUTHWEST NEBRASKA AND FAR NORTHEAST COLORADO...

CITY           SKY/WX    TMP DP  RH WIND       PRES   REMARKS
WRAY           CLOUDY    15   3  59 E12       30.32S WCI   1
IMPERIAL         N/A      8  -4  58 E9        30.38S WCI  -5
OGALLALA       CLEAR      6  -3  68 E7        30.38F WCI  -6
NORTH PLATTE   CLEAR     -1  -8  72 E6        30.44  WCI -13
MCCOOK         PTCLDY     7  -3  64 NE6       30.45S WCI  -3
LEXINGTON      CLEAR      3  -5  67 CALM      30.48S
PAXTON           N/A      1  -6  71 CALM        N/A
BRADY            N/A      1  -7  69 CALM        N/A
GOTHENBURG       N/A      2  -7  66 CALM        N/A
CALLAWAY         N/A      0  -6  74 E3          N/A
$$

...NORTH PLATTE AREA...

CITY           SKY/WX    TMP DP  RH WIND       PRES   REMARKS
AIRPORT        CLEAR     -1  -8  72 E6        30.44  WCI -13
DOWNTOWN         N/A      4  -5  65 CALM        N/A
$$

...SOME WEATHER OBSERVATIONS FROM AROUND THE REGION...

CITY           SKY/WX    TMP DP  RH WIND       PRES   REMARKS
DENVER         LGT SNOW  12   8  84 S17       30.08F VSB 3/4 WCI  -5
LARAMIE        PTCLDY     2  -3  80 SE22      29.91F WCI -20
CHEYENNE       LGT SNOW   6   2  83 S9        30.04F FOG     WCI  -8
SCOTTSBLUFF    CLOUDY     9   0  67 E13       30.28F WCI  -7
RAPID CITY     PTCLDY    -9 -14  78 NW5       30.35F WCI -20
PIERRE         CLEAR     -3 -10  72 CALM      30.50F
WINNER         FAIR       1  -9  62 SW5       30.49F WCI  -9
SIOUX FALLS    CLEAR     -6 -11  79 NW3       30.52S
OMAHA          CLEAR      2  -3  80 N3        30.59S
GRAND ISLAND   CLEAR      0  -6  76 W5        30.53S WCI -10
KANSAS CITY    CLEAR      4  -3  73 N7        30.58R WCI  -8
WICHITA        CLEAR     14   0  53 NE13      30.54R WCI   0
HAYS           MOCLDY    10  -8  44 E3        30.49R
LIBERAL        CLOUDY    19   1  45 E9        30.39S WCI   9
GOODLAND       CLOUDY    14   4  64 SE13      30.32F WCI   0
$$



USA.gov is the U.S. government's official web portal to all federal, state and local government web resources and services.